Waarnemingen

Advertentie
Mijn weer
Jersey Airport, Groot Brittannië (3895): temperatuur & dauwpunt: 26.03.2020 16:00:00 - 01.04.2020 16:00:00 (BST)Jersey Airport, Groot Brittannië (3895): temperatuur -20cm & temperatuur -100cm: 26.03.2020 16:00:00 - 01.04.2020 16:00:00 (BST)Jersey Airport, Groot Brittannië (3895): windsnelheid & windstoten: 26.03.2020 16:00:00 - 01.04.2020 16:00:00 (BST)Jersey Airport, Groot Brittannië (3895): windrichting: 26.03.2020 16:00:00 - 01.04.2020 16:00:00 (BST)Jersey Airport, Groot Brittannië (3895): luchtdruk: 26.03.2020 16:00:00 - 01.04.2020 16:00:00 (BST)Jersey Airport, Groot Brittannië (3895): zicht: 26.03.2020 16:00:00 - 01.04.2020 16:00:00 (BST)Jersey Airport, Groot Brittannië (3895): Zonneschijnduur: 26.03.2020 16:00:00 - 01.04.2020 16:00:00 (BST)Jersey Airport, Groot Brittannië (3895): neerslag: 26.03.2020 16:00:00 - 01.04.2020 16:00:00 (BST)
Datum & Tijd tt [°C] td [°C] tt -20cm [°C] tt -100cm [°C] ff [km/u] ff [kn] fx [km/u] fx [kn] dd ppp [hPa] vv [km] sd [min] rr [mm]
01.04.2020 16:00:00 - - - - - - - - - - - - -
01.04.2020 15:00:00 9,9 2,8 - - 26 14 - - NNO 1021,3 28 60 0,0
01.04.2020 14:00:00 9,4 1,9 - - 15 8 - - NO 1021,7 10 60 0,0
01.04.2020 13:00:00 9,5 -0,9 - - 21 11 - - NO 1022,3 10 60 0,0
01.04.2020 12:00:00 8,9 0,2 - - 22 12 - - NO 1022,8 30 60 0,0
01.04.2020 11:00:00 8,8 1,3 - - 18 10 - - NO 1023,2 10 60 0,0
01.04.2020 10:00:00 7,8 1,7 8,9 9,2 18 10 - - O 1023,6 10 60 0,0
01.04.2020 09:00:00 7,1 2,6 - - 21 11 - - ONO 1023,6 10 60 0,0
01.04.2020 08:00:00 5,9 2,7 - - 22 12 - - ONO 1023,6 18 36 0,0
01.04.2020 07:00:00 4,9 2,4 - - 16 9 - - ONO 1023,6 10 0 0,0
01.04.2020 06:00:00 4,8 2,4 - - 16 9 - - ONO 1023,7 10 0 0,0
01.04.2020 05:00:00 5,1 2,5 - - 18 10 - - ONO 1023,8 10 0 0,0
01.04.2020 04:00:00 5,1 2,4 - - 15 8 - - ONO 1024,3 10 0 0,0
01.04.2020 03:00:00 4,9 2,2 - - 21 11 - - ONO 1024,8 15 0 0,0
01.04.2020 02:00:00 4,9 2,0 - - 15 8 - - ONO 1025,5 10 0 0,0
01.04.2020 01:00:00 5,2 1,8 - - 16 9 - - ONO 1025,8 10 - 0,0
01.04.2020 00:00:00 5,4 1,7 - - 18 10 - - ONO 1026,2 10 0 0,0
31.03.2020 23:00:00 5,5 1,0 - - 21 11 46 25 ONO 1026,4 10 0 0,0
31.03.2020 22:00:00 5,9 0,3 - - 22 12 52 28 ONO 1026,4 10 0 0,0
31.03.2020 21:00:00 6,0 -0,1 - - 28 15 50 27 ONO 1026,4 10 0 0,0
31.03.2020 20:00:00 6,5 0,1 - - 26 14 50 27 ONO 1026,3 10 30 0,0
31.03.2020 19:00:00 7,3 0,9 - - 29 16 50 27 ONO 1026,3 35 60 0,0
31.03.2020 18:00:00 8,2 1,2 - - 22 12 52 28 ONO 1025,9 10 60 0,0
31.03.2020 17:00:00 8,6 1,9 - - 29 16 54 29 ONO 1026,0 10 54 -
31.03.2020 16:00:00 8,6 1,2 - - 26 14 52 28 ONO 1026,2 10 48 0,0
31.03.2020 15:00:00 9,5 2,0 - - 31 17 50 27 ONO 1026,9 10 54 0,0
31.03.2020 14:00:00 9,0 1,1 - - 35 19 52 28 ONO 1027,3 30 48 0,0
31.03.2020 13:00:00 8,2 1,5 - - 29 16 50 27 ONO 1028,0 10 18 0,0
31.03.2020 12:00:00 7,9 2,6 - - 29 16 - - O 1028,2 10 6 0,0
31.03.2020 11:00:00 6,5 4,4 - - 22 12 - - ONO 1028,8 19 0 0,4
31.03.2020 10:00:00 6,6 3,8 9,0 9,4 18 10 - - ONO 1028,8 10 6 0,0
31.03.2020 09:00:00 6,1 4,0 - - 22 12 48 26 ONO 1028,6 10 6 0,0
31.03.2020 08:00:00 5,9 3,4 - - 21 11 - - ONO 1028,4 10 0 0,0
31.03.2020 07:00:00 5,8 3,6 - - 21 11 - - ONO 1028,1 10 0 0,0
31.03.2020 06:00:00 5,7 3,6 - - 29 16 46 25 ONO 1027,7 15 0 0,0
31.03.2020 05:00:00 5,6 3,6 - - 22 12 - - ONO 1027,7 10 0 0,0
31.03.2020 04:00:00 5,7 3,2 - - 28 15 48 26 ONO 1027,7 10 0 0,0
31.03.2020 03:00:00 5,9 2,8 - - 18 10 - - ONO 1028,1 10 0 0,0
31.03.2020 02:00:00 6,3 3,2 - - 18 10 - - NO 1028,5 10 0 0,0
31.03.2020 01:00:00 6,0 2,4 - - 21 11 46 25 ONO 1028,6 10 - 0,0
31.03.2020 00:00:00 6,3 2,4 - - 31 17 52 28 ONO 1028,8 23 0 0,0
30.03.2020 23:00:00 6,3 3,1 - - 22 12 - - ONO 1028,9 10 0 0,0
30.03.2020 22:00:00 6,2 2,1 - - 18 10 - - NO 1029,0 10 0 0,0
30.03.2020 21:00:00 6,4 1,3 - - 24 13 54 29 NO 1029,1 10 0 0,0
30.03.2020 20:00:00 6,9 1,1 - - 26 14 48 26 NO 1028,4 10 24 0,0
30.03.2020 19:00:00 7,2 0,9 - - 24 13 48 26 NO 1028,4 10 48 0,0
30.03.2020 18:00:00 7,3 0,6 - - 29 16 52 28 NO 1029,0 30 42 0,0
30.03.2020 17:00:00 7,3 -0,4 - - 35 19 54 29 NO 1029,2 35 42 0,0
30.03.2020 16:00:00 7,5 0,5 - - 31 17 52 28 NNO 1029,7 10 36 0,0
30.03.2020 15:00:00 7,8 1,2 - - 31 17 59 32 NNO 1030,3 10 30 0,0
30.03.2020 14:00:00 6,5 -0,5 - - 29 16 54 29 NNO 1031,2 10 12 0,0
30.03.2020 13:00:00 6,6 -1,5 - - 29 16 - - NO 1031,8 30 0 0,0
30.03.2020 12:00:00 5,5 0,2 - - 21 11 - - ONO 1032,5 10 0 0,0
30.03.2020 11:00:00 4,9 0,2 - - 28 15 54 29 ONO 1033,1 10 0 0,0
30.03.2020 10:00:00 5,4 -1,9 9,2 9,4 34 18 55 30 NO 1033,3 24 0 0,0
30.03.2020 09:00:00 5,1 -3,0 - - 26 14 63 34 NO 1033,6 10 0 0,0
30.03.2020 08:00:00 4,8 -2,0 - - 28 15 59 32 NO 1033,3 10 0 0,0
30.03.2020 07:00:00 4,9 -2,5 - - 29 16 55 30 NO 1033,2 10 0 0,0
30.03.2020 06:00:00 4,8 -2,8 - - 29 16 59 32 NO 1033,2 10 0 0,0
30.03.2020 05:00:00 4,8 -3,0 - - 29 16 59 32 NO 1033,8 10 0 0,0
30.03.2020 04:00:00 4,8 -3,1 - - 31 17 59 32 NO 1034,0 10 0 0,0
30.03.2020 03:00:00 4,9 -3,0 - - 31 17 63 34 NO 1034,5 10 0 0,0
30.03.2020 02:00:00 4,7 -3,1 - - 31 17 63 34 NNO 1035,0 22 0 0,0
30.03.2020 01:00:00 4,8 -3,7 - - 34 18 65 35 NO 1035,4 10 - 0,0
30.03.2020 00:00:00 5,0 -2,8 - - 35 19 65 35 NO 1035,7 10 0 0,0
29.03.2020 23:00:00 5,2 -3,9 - - 29 16 67 36 ONO 1035,8 10 0 0,0
29.03.2020 22:00:00 5,5 -4,0 - - 34 18 70 38 ONO 1035,7 10 0 0,0
29.03.2020 21:00:00 5,6 -2,0 - - 35 19 68 37 NO 1035,3 26 0 0,0
29.03.2020 20:00:00 5,7 -1,4 - - 31 17 68 37 NO 1035,1 10 6 0,0
29.03.2020 19:00:00 5,9 -1,8 - - 34 18 68 37 NO 1034,7 10 36 0,0
29.03.2020 18:00:00 6,6 -0,2 - - 41 22 67 36 NO 1034,3 18 48 0,0
29.03.2020 17:00:00 7,3 -0,4 - - 37 20 70 38 NO 1034,0 10 42 0,0
29.03.2020 16:00:00 7,0 -0,5 - - 34 18 68 37 NO 1033,9 35 18 0,0
29.03.2020 15:00:00 7,3 -1,6 - - 37 20 67 36 NO 1033,8 10 6 0,0
29.03.2020 14:00:00 7,0 -1,5 - - 34 18 70 38 NO 1034,2 10 36 0,0
29.03.2020 13:00:00 6,8 -2,2 - - 29 16 63 34 NO 1034,0 10 24 0,0
29.03.2020 12:00:00 6,6 -4,5 - - 44 24 72 39 NO 1034,0 30 18 0,0
29.03.2020 11:00:00 6,6 -4,4 - - 41 22 68 37 NO 1033,7 27 18 0,0
29.03.2020 10:00:00 5,6 -4,3 9,7 9,5 39 21 68 37 NO 1033,8 30 0 0,0
29.03.2020 09:00:00 5,4 -3,9 - - 48 26 67 36 NO 1033,6 35 6 0,0
29.03.2020 08:00:00 5,3 -3,4 - - 41 22 67 36 NO 1033,2 26 0 0,0
29.03.2020 07:00:00 5,3 -1,7 - - 37 20 67 36 NO 1032,4 10 0 0,0
29.03.2020 06:00:00 5,4 -0,7 - - 39 21 68 37 NO 1031,7 10 0 0,0
29.03.2020 05:00:00 5,9 0,1 - - 42 23 68 37 NO 1031,1 20 0 0,0
29.03.2020 04:00:00 6,1 0,9 - - 37 20 63 34 NO 1030,7 25 0 0,0
29.03.2020 03:00:00 6,4 0,9 - - 39 21 65 35 NO 1030,5 20 0 0,0
29.03.2020 02:00:00 6,7 1,1 - - 28 15 68 37 NO 1030,2 10 0 0,0
29.03.2020 01:00:00 7,2 1,0 - - 31 17 65 35 NO 1029,7 10 - 0,0
29.03.2020 00:00:00 7,4 1,2 - - 31 17 68 37 NO 1029,1 10 0 0,0
28.03.2020 23:00:00 7,7 1,6 - - 34 18 70 38 NO 1028,6 10 0 0,0
28.03.2020 22:00:00 7,8 1,6 - - 44 24 68 37 NO 1027,9 22 0 0,0
28.03.2020 21:00:00 8,0 2,8 - - 42 23 67 36 NO 1027,4 18 0 0,0
28.03.2020 20:00:00 8,2 3,3 - - 35 19 67 36 NO 1026,5 10 0 0,0
28.03.2020 19:00:00 9,1 2,6 - - 31 17 65 35 ONO 1025,6 10 60 0,0
28.03.2020 18:00:00 10,0 2,8 - - 29 16 59 32 ONO 1024,7 10 60 0,0
28.03.2020 17:00:00 10,5 3,7 - - 26 14 52 28 NO 1024,3 10 48 0,0
28.03.2020 16:00:00 10,2 5,3 - - 29 16 48 26 NO 1024,2 9 6 0,0
28.03.2020 15:00:00 9,1 5,3 - - 28 15 46 25 NO 1024,5 8 0 0,0
28.03.2020 14:00:00 8,9 5,5 - - 28 15 50 27 NO 1024,6 7 0 0,0
28.03.2020 13:00:00 8,4 5,3 - - 34 18 48 26 NO 1024,3 8 0 0,0
28.03.2020 12:00:00 8,1 5,2 - - 26 14 - - NO 1024,3 8 0 0,0
28.03.2020 11:00:00 7,6 4,8 - - 22 12 - - NO 1024,2 8 0 0,0
28.03.2020 10:00:00 7,4 4,6 9,7 9,5 16 9 - - NO 1024,0 9 0 0,0
28.03.2020 09:00:00 7,3 4,6 - - 21 11 - - NO 1023,6 8 0 0,0
28.03.2020 08:00:00 7,2 4,3 - - 21 11 - - NO 1023,2 8 0 0,0
28.03.2020 07:00:00 7,2 4,0 - - 21 11 - - NO 1022,7 7 0 0,0
28.03.2020 06:00:00 7,1 3,5 - - 24 13 - - NO 1022,4 9 0 0,0
28.03.2020 05:00:00 7,2 3,2 - - 24 13 - - NO 1022,2 11 0 0,0
28.03.2020 04:00:00 7,5 2,8 - - 16 9 - - NO 1022,1 10 0 0,0
28.03.2020 03:00:00 7,5 3,2 - - 16 9 - - NO 1022,2 10 0 0,0
28.03.2020 02:00:00 7,2 2,5 - - 18 10 - - ONO 1022,3 13 0 0,0
28.03.2020 01:00:00 7,6 1,9 - - 13 7 - - ONO 1022,3 10 - 0,0
28.03.2020 00:00:00 8,2 1,3 - - 22 12 - - NO 1022,1 22 0 0,0
27.03.2020 23:00:00 8,3 1,6 - - 16 9 - - NO 1022,0 28 0 0,0
27.03.2020 22:00:00 8,6 1,2 - - 11 6 - - NO 1021,9 10 0 0,0
27.03.2020 21:00:00 8,2 4,5 - - 11 6 - - NNO 1021,8 10 0 0,0
27.03.2020 20:00:00 8,6 3,7 - - 11 6 - - NNO 1021,5 10 0 0,0
27.03.2020 19:00:00 9,7 3,3 - - 13 7 - - NNO 1020,9 10 54 0,0
27.03.2020 18:00:00 10,1 3,4 - - 22 12 - - NO 1020,6 11 60 0,0
27.03.2020 17:00:00 10,0 4,4 - - 24 13 - - NNO 1020,6 10 60 0,0
27.03.2020 16:00:00 10,4 5,2 - - 28 15 - - N 1020,5 10 60 0,0
27.03.2020 15:00:00 11,3 2,3 - - 16 9 - - NO 1020,8 10 60 0,0
27.03.2020 14:00:00 11,2 2,7 - - 24 13 - - ONO 1021,0 14 60 0,0
27.03.2020 13:00:00 11,1 3,4 - - 16 9 - - NO 1021,4 10 54 0,0
27.03.2020 12:00:00 10,0 3,9 - - 21 11 - - NO 1021,7 12 48 0,0
27.03.2020 11:00:00 9,1 4,8 - - 21 11 - - NNO 1021,6 9 60 0,0
27.03.2020 10:00:00 8,3 5,2 9,7 9,5 18 10 - - ONO 1021,4 7 60 0,0
27.03.2020 09:00:00 7,5 5,4 - - 13 7 - - NO 1021,2 6 60 0,0
27.03.2020 08:00:00 6,6 4,8 - - 18 10 - - ONO 1021,0 5 6 0,0
27.03.2020 07:00:00 6,3 4,2 - - 13 7 - - NO 1020,9 6 0 0,0
27.03.2020 06:00:00 6,2 4,5 - - 18 10 - - NO 1020,5 5 0 0,0
27.03.2020 05:00:00 6,1 4,4 - - 11 6 - - NO 1020,3 6 0 0,0
27.03.2020 04:00:00 6,3 4,2 - - 16 9 - - NO 1020,4 7 0 0,0
27.03.2020 03:00:00 6,1 3,9 - - 13 7 - - ONO 1020,6 7 0 0,0
27.03.2020 02:00:00 6,2 3,5 - - 16 9 - - ONO 1020,8 8 0 0,0
27.03.2020 01:00:00 6,1 3,2 - - 15 8 - - ONO 1020,8 10 - 0,0
27.03.2020 00:00:00 6,2 2,6 - - 21 11 - - ONO 1020,9 10 0 0,0
26.03.2020 23:00:00 6,5 2,3 - - 21 11 - - NO 1021,0 13 0 0,0
26.03.2020 22:00:00 6,6 1,9 - - 18 10 - - ONO 1020,8 10 0 0,0
26.03.2020 21:00:00 6,7 0,9 - - 22 12 - - ONO 1020,6 10 0 0,0
26.03.2020 20:00:00 7,3 -0,6 - - 24 13 48 26 ONO 1019,9 22 12 0,0
26.03.2020 19:00:00 8,1 -0,9 - - 24 13 50 27 ONO 1019,2 10 54 0,0
26.03.2020 18:00:00 8,7 -0,6 - - 26 14 52 28 ONO 1019,3 10 54 0,0
26.03.2020 17:00:00 9,4 -1,4 - - 28 15 - - ONO 1019,1 35 60 0,0
26.03.2020 16:00:00 - - - - - - - - - - - - -

tt = temperatuur
td = dauwpunt
tt -20cm = temperatuur -20cm
tt -100cm = temperatuur -100cm
ff = windsnelheid
fx = windstoten
dd = windrichting
ppp = luchtdruk
vv = zicht
sd = Zonneschijnduur
rr = neerslag

Weerstations in de omgeving